Location: Chevoux
(46.3801°N, 4.9476°E)
Time: 12:18:04
(UTC+00:00)

NOSS 2-1 (D) - Pass Details

Date: 28 January 2021
Orbit: 434 x 1768 km, 63.3° (Epoch: 27 February)

Event Time Altitude Azimuth Distance (km) Brightness Sun altitude
Rises 17:23:45 0° 220° (SW) 2,465 7.8 -8.0°
Reaches altitude 10° 17:25:51 10° 222° (SW) 1,550 6.7 -8.4°
Maximum altitude 17:29:09 79° 310° (NW) 449 2.9 -8.9°
Drops below altitude 10° 17:32:36 10° 37° (NE) 1,622 5.2 -9.5°
Enters shadow 17:32:54 - 38° (NE) 1,752 5.4 -9.5°
